This is the latest recevied weather packets stored in our database for station/object SP4LIN-15. If no packets are shown the sender has not sent any weather packets the latest 10 day(s).
| Time | Temp. | Humidity | Pressure | Rain* | Wind** | Luminosity | Snow |
|---|---|---|---|---|---|---|---|
| 1777674515 | 5.56° C | 73% | 1016.5 hPa | 0 mm | - | - | - |
| 1777673615 | 6.11° C | 71% | 1016.4 hPa | 0 mm | - | - | - |
| 1777672715 | 6.67° C | 71% | 1016.5 hPa | 0 mm | - | - | - |
| 1777671815 | 6.67° C | 70% | 1016.5 hPa | 0 mm | - | - | - |
| 1777670915 | 7.22° C | 69% | 1016.5 hPa | 0 mm | - | - | - |
| 1777670015 | 7.22° C | 64% | 1016.6 hPa | 0 mm | - | - | - |
| 1777669115 | 7.22° C | 62% | 1016.5 hPa | 0 mm | - | - | - |
| 1777668215 | 7.78° C | 62% | 1016.8 hPa | 0 mm | - | - | - |
| 1777667315 | 8.33° C | 61% | 1016.8 hPa | 0 mm | - | - | - |
| 1777666415 | 8.89° C | 60% | 1016.8 hPa | 0 mm | - | - | - |
| 1777665515 | 8.89° C | 59% | 1016.8 hPa | 0 mm | - | - | - |
| 1777664615 | 9.44° C | 59% | 1016.7 hPa | 0 mm | - | - | - |
| 1777663348 | 10° C | 53% | 1016.6 hPa | 0 mm | - | - | - |
| 1777662448 | 10.56° C | 52% | 1016.6 hPa | 0 mm | - | - | - |
| 1777661548 | 11.67° C | 51% | 1016.6 hPa | 0 mm | - | - | - |
| 1777660648 | 12.22° C | 49% | 1016.5 hPa | 0 mm | - | - | - |
| 1777659748 | 13.89° C | 46% | 1016.4 hPa | 0 mm | - | - | - |
| 1777658848 | 15.56° C | 39% | 1016.3 hPa | 0 mm | - | - | - |
| 1777657948 | 18.33° C | 36% | 1016.2 hPa | 0 mm | - | - | - |
| 1777657048 | 21.67° C | 34% | 1016.3 hPa | 0 mm | - | - | - |
| 1777656148 | 22.78° C | 31% | 1016.1 hPa | 0 mm | - | - | - |
| 1777655248 | 23.33° C | 31% | 1016.3 hPa | 0 mm | - | - | - |
| 1777654349 | 24.44° C | 29% | 1016.2 hPa | 0 mm | - | - | - |
| 1777653448 | 24.44° C | 29% | 1016.1 hPa | 0 mm | - | - | - |
| 1777652549 | 25° C | 29% | 1016.2 hPa | 0 mm | - | - | - |
* Rain latest hour (hover to see other rain measurements)
** Current wind speed in m/s (hover to see current wind gust speed)